Regional Weather Roundup
Issued by NWS

Home | Current Version | Previous Version | Graphics & Text | Print | Product List | Glossary On
Versions: 1 2 3 4 5 6 7 8 9 10 11 12 13 14 15 16 17 18 19 20 21 22 23 24 25 26 27 28 29 30 31 32 33 34 35 36 37 38 39 40 41 42 43 44 45 46 47 48 49 50
000
ASUS43 KFSD 302110
RWRSD

WEATHER ROUNDUP FOR SOUTH DAKOTA
NATIONAL WEATHER SERVICE SIOUX FALLS SD
400 PM CDT WED JUL 30 2014

NOTE: "FAIR" INDICATES FEW OR NO CLOUDS BELOW 12,000 FEET WITH NO
SIGNIFICANT WEATHER AND/OR OBSTRUCTIONS TO VISIBILITY.


SDZ001>005-009-010-012>017-302200-
NORTHWEST AND NORTH CENTRAL SOUTH DAKOTA

CITY           SKY/WX    TMP DP  RH WIND       PRES   REMARKS
BUFFALO          N/A     83  49  30 NE14      30.12S
FAITH            N/A     84  52  33 NE8       30.12F
MOBRIDGE       MOSUNNY   81  57  43 NE8       30.09F
$$

SDZ012>016-024>037-041>051-057-063-072>074-302200-
SOUTHWEST AND SOUTH CENTRAL SOUTH DAKOTA

CITY           SKY/WX    TMP DP  RH WIND       PRES   REMARKS
RAPID CTY ARPT MOSUNNY   85  42  22 NW12      30.17F
PIERRE         MOSUNNY   87  53  31 VRB7      30.08F
CUSTER         MOSUNNY   75  48  38 VRB7      30.30S
ELLSWORTH AFB  MOSUNNY   84  44  24 N14       30.17S
PHILIP         MOSUNNY   89  52  28 NW14G22   30.09S
PINE RIDGE     PTSUNNY   80  49  33 CALM      30.19F
WINNER         MOCLDY    86  48  26 N3        30.12F
$$

SDZ004>011-016>023-039-040-302200-
NORTHEAST SOUTH DAKOTA

CITY           SKY/WX    TMP DP  RH WIND       PRES   REMARKS
ABERDEEN       MOSUNNY   80  54  40 N7        30.11S
WATERTOWN      MOSUNNY   77  53  43 N7        30.13F
SISSETON         N/A     80  55  42 N6        30.10S
$$

SDZ017-020-022-023-036>040-048>070-302200-
SOUTHEAST SOUTH DAKOTA

CITY           SKY/WX    TMP DP  RH WIND       PRES   REMARKS
SIOUX FALLS    MOSUNNY   79  54  41 NW6       30.12F
HURON          MOSUNNY   82  54  37 NE7       30.11F
CHAMBERLAIN    MOSUNNY   81  58  45 S3        30.11F
MITCHELL       MOSUNNY   80  54  40 VRB3      30.12F
YANKTON        SUNNY     79  54  41 E5        30.13S
$$

ABBREVIATIONS USED IN REMARKS
   TC - TEMPERATURE IN CELSIUS
  WCI - WIND CHILL INDEX
   HX - HEAT INDEX
  VSB - VISIBILITY



USA.gov is the U.S. government's official web portal to all federal, state and local government web resources and services.